[[{"header":{"parameterUnit":"m.s-1","parameterCategory":2,"la1":30.2991,"la2":30.254,"lo1":-89.0895,"lo2":-89.0444,"dy":0.0017,"dx":0.0017,"nx":28,"ny":28,"refTime":"2025-05-31T03:00:00:Z","depth":"0","parameterNumber":2,"parameterNumberName":"U-component_of_CURRENTS"},"data":[0,0,0,0,0,0,0,0,0,0,0,0,0,0,0,0,0,0,0,0,0,0,0,0,0,0,0,0,0,0,0,0,0,0,0,0,0,0,0,0,0,0,0,0,0,0,0,0,0,0,0,0,0,0,0,0,0,0,0.2994,0.2995,0,0.3124,0.3125,0.3127,0.3181,0.3181,0.3181,0.318,0.3289,0.3292,0.3296,0,0,0,0,0,0,0,0,0,0,0,0,0,0.2875,0.2877,0.2994,0.2996,0.2997,0.3124,0.3126,0.3127,0.3182,0.3181,0.3181,0.318,0.3288,0.3292,0.3296,0,0,0,0,0,0,0,0,0,0,0,0,0,0.2959,0.2877,0.2994,0.3039,0.3044,0.3123,0.3126,0.3128,0.3182,0.3181,0.3181,0.318,0.3287,0.3292,0.3296,0.3337,0,0,0.3311,0.3313,0,0,0,0,0,0,0,0,0.2954,0.2963,0.3031,0.3036,0.3042,0.3135,0.3124,0.3196,0.3182,0.313,0.318,0.318,0.3236,0.3245,0.3272,0.3342,0.3346,0.3312,0.3315,0.3317,0.3318,0,0,0,0,0,0,0,0.2948,0.2958,0.3046,0.3032,0.3039,0.308,0.3091,0.3138,0.3185,0.3135,0.3139,0.3152,0.3238,0.3267,0.3275,0.3348,0.3311,0.3316,0.3319,0.3321,0.348,0.3482,0,0,0,0,0,0,0.2926,0.2953,0.3042,0.305,0.2995,0.3082,0.3095,0.3106,0.3185,0.3196,0.3152,0.3154,0.3259,0.3269,0.3279,0.3371,0.3317,0.3321,0.3324,0.3479,0.3481,0.3482,0,0,0,0,0,0,0.2923,0.2933,0.3037,0.3004,0.302,0.3084,0.3098,0.3109,0.3138,0.3198,0.3209,0.3169,0.3259,0.3272,0.3332,0.3374,0.3323,0.3328,0.3477,0.3479,0.3481,0.3529,0,0,0,0,0,0,0.2919,0.2931,0.2937,0.3002,0.3021,0.3096,0.3099,0.3112,0.3147,0.315,0.3216,0.3226,0.326,0.3325,0.3337,0.3379,0.3331,0.3476,0.3478,0.3481,0.3526,0.3533,0.3539,0,0,0,0,0,0.2915,0.2936,0.2936,0.2947,0.3024,0.3097,0.3112,0.3156,0.3148,0.3176,0.3215,0.3224,0.3349,0.333,0.3344,0.3389,0.3474,0.3478,0.348,0.3523,0.3532,0.3538,0,0,0,0,0,0,0.2895,0.2945,0.2947,0.2982,0.3034,0.3106,0.314,0.3154,0.3208,0.3209,0.3246,0.3261,0.3328,0.3346,0.3324,0.344,0.3412,0.3417,0.3439,0.3447,0.3454,0.346,0.3335,0,0,0,0,0,0.2887,0.2914,0.2967,0.2997,0.3021,0.3073,0.3105,0.3135,0.3188,0.3211,0.3252,0.3297,0.3353,0.3387,0.3435,0.3501,0.3525,0.3536,0.3542,0.3547,0.3561,0.3603,0.3614,0.3492,0.3492,0.3492,0,0,0.2888,0.292,0.2934,0.2994,0.3037,0.31,0.3093,0.3151,0.3203,0.3214,0.3291,0.332,0.3372,0.3451,0.3482,0.3473,0.3603,0.3551,0.3556,0.3567,0.3607,0.3619,0.363,0.3494,0.3494,0.3493,0,0,0.2921,0.293,0.2969,0.3017,0.3081,0.3119,0.3131,0.3199,0.3227,0.3299,0.3319,0.3369,0.3452,0.3505,0.354,0.3606,0.3628,0.3616,0.3667,0.3708,0.3718,0.3727,0.3807,0.3823,0.3627,0.3627,0.3627,0,0.2919,0.2973,0.2995,0.3056,0.3099,0.3126,0.3188,0.3234,0.3311,0.3333,0.3329,0.3442,0.3485,0.3579,0.3614,0.3623,0.3657,0.3636,0.3716,0.3726,0.3734,0.3813,0.383,0.363,0.3629,0.3629,0.3629,0,0.299,0.3036,0.3069,0.3147,0.3195,0.3255,0.3312,0.3353,0.3373,0.341,0.3482,0.3536,0.3595,0.3626,0.3654,0.3742,0.3751,0.3712,0.3696,0.375,0.383,0.3847,0.3633,0.3633,0.3632,0.3631,0,0,0.2985,0.3093,0.3105,0.315,0.3244,0.3292,0.3369,0.344,0.3479,0.3536,0.3591,0.3687,0.3679,0.3718,0.3744,0.3801,0.3912,0.3795,0.3796,0.3875,0.4038,0.4109,0.4134,0.3881,0.3884,0.3886,0.4082,0,0.3035,0.3146,0.3186,0.3293,0.3359,0.3398,0.3465,0.3527,0.3569,0.3629,0.3668,0.3732,0.3723,0.3756,0.3807,0.3877,0.3953,0.3865,0.3975,0.3979,0.4035,0.4154,0.3977,0.4142,0.4098,0.4101,0.4103,0,0.3103,0.3165,0.3269,0.3362,0.3388,0.3444,0.3528,0.3591,0.367,0.3698,0.3747,0.3771,0.387,0.3841,0.3985,0.3926,0.3997,0.4051,0.4058,0.4118,0.4081,0.4075,0.4174,0.4028,0.4129,0.4126,0.4125,0,0.3115,0.3226,0.3298,0.3339,0.3447,0.3477,0.3524,0.3605,0.3657,0.374,0.3786,0.3857,0.3921,0.3988,0.4115,0.4045,0.4294,0.4192,0.4332,0.4338,0.4208,0.42,0.4176,0.4311,0.4311,0.431,0.4309,0,0.318,0.3247,0.33,0.3352,0.3424,0.3481,0.3554,0.3612,0.3688,0.3771,0.3808,0.3901,0.3962,0.4102,0.4167,0.4345,0.4332,0.439,0.4404,0.4226,0.4217,0.41,0.4042,0.4317,0.4316,0.4314,0.4313,0,0.3251,0.3275,0.3367,0.3434,0.3446,0.3507,0.3579,0.3636,0.3696,0.381,0.3842,0.3965,0.4137,0.4249,0.4415,0.4443,0.4473,0.4656,0.4481,0.4473,0.4396,0.4349,0.4274,0.4158,0.4789,0.4792,0.4794,0,0.3339,0.3382,0.3423,0.3456,0.3493,0.3556,0.3601,0.3649,0.3712,0.3867,0.3936,0.4121,0.4267,0.4553,0.4634,0.4791,0.462,0.4737,0.456,0.4426,0.4382,0.4188,0.4079,0.4413,0.4412,0.4412,0.4411,0,0.3505,0.3478,0.3523,0.3566,0.3601,0.3639,0.3697,0.373,0.3808,0.3892,0.4043,0.4165,0.4429,0.4512,0.4746,0.4799,0.4486,0.4732,0.4597,0.4126,0.3904,0.3787,0.4286,0.4406,0.4406,0.4407,0.4407,0.4407,0.3616,0.3653,0.3655,0.3691,0.3716,0.3716,0.3719,0.3773,0.3838,0.3931,0.4086,0.4212,0.4363,0.4629,0.4674,0.4568,0.4515,0.4398,0.4372,0.4204,0.4017,0.4567,0.47,0.4702,0.4704,0.4706,0.4707,0,0.3735,0.3734,0.3789,0.378,0.3784,0.377,0.3781,0.3748,0.3783,0.3919,0.4027,0.4133,0.4245,0.4316,0.4309,0.419,0.3959,0.4074,0.3678,0.3603,0.409,0.3995,0.3974,0.3974,0.3975,0.3975,0.3975,0.3975,0.3802,0.3832,0.3816,0.3822,0.3807,0.3747,0.3716,0.3667,0.3707,0.3706,0.3728,0.3812,0.3928,0.4037,0.3897,0.3812,0.3492,0.3397,0.3393,0.3653,0.3675,0.3696,0.3589,0.3483,0.3483,0.269,0.2684,0.268]},{"header":{"parameterUnit":"m.s-1","parameterCategory":2,"la1":30.2991,"la2":30.254,"lo1":-89.0895,"lo2":-89.0444,"dy":0.0017,"dx":0.0017,"nx":28,"ny":28,"refTime":"2025-05-31T03:00:00:Z","depth":"0","parameterNumber":3,"parameterNumberName":"V-component_of_CURRENTS"},"data":[0,0,0,0,0,0,0,0,0,0,0,0,0,0,0,0,0,0,0,0,0,0,0,0,0,0,0,0,0,0,0,0,0,0,0,0,0,0,0,0,0,0,0,0,0,0,0,0,0,0,0,0,0,0,0,0,0,0,-0.0945,-0.0945,0,-0.1038,-0.1039,-0.1041,-0.1127,-0.1127,-0.1128,-0.1128,-0.1279,-0.1283,-0.1286,0,0,0,0,0,0,0,0,0,0,0,0,0,-0.0973,-0.0972,-0.0945,-0.0945,-0.0946,-0.1038,-0.1039,-0.1041,-0.1127,-0.1127,-0.1128,-0.1129,-0.1278,-0.1282,-0.1286,0,0,0,0,0,0,0,0,0,0,0,0,0,-0.1007,-0.0971,-0.0945,-0.0996,-0.1001,-0.1037,-0.1039,-0.1042,-0.1126,-0.1127,-0.1128,-0.1129,-0.1277,-0.1282,-0.1287,-0.1301,0,0,-0.1303,-0.1305,0,0,0,0,0,0,0,0,-0.1005,-0.1007,-0.0988,-0.0993,-0.0999,-0.1067,-0.1105,-0.113,-0.1126,-0.1084,-0.1128,-0.113,-0.121,-0.1221,-0.1242,-0.1308,-0.1315,-0.1303,-0.1307,-0.1309,-0.131,0,0,0,0,0,0,0,-0.1002,-0.1004,-0.0987,-0.0988,-0.0995,-0.106,-0.1065,-0.1111,-0.1146,-0.1088,-0.1093,-0.1095,-0.1214,-0.1237,-0.1247,-0.1317,-0.1303,-0.1308,-0.1311,-0.1313,-0.1417,-0.1416,0,0,0,0,0,0,-0.0973,-0.1001,-0.0984,-0.0989,-0.0999,-0.1057,-0.1064,-0.1048,-0.1144,-0.1158,-0.1094,-0.1099,-0.1228,-0.124,-0.1252,-0.1278,-0.1309,-0.1314,-0.1317,-0.1417,-0.1417,-0.1416,0,0,0,0,0,0,-0.0973,-0.0969,-0.098,-0.0995,-0.1,-0.1054,-0.1038,-0.105,-0.107,-0.1148,-0.1164,-0.1102,-0.1229,-0.1245,-0.1295,-0.1284,-0.1316,-0.1321,-0.1417,-0.1417,-0.1416,-0.1327,0,0,0,0,0,0,-0.0973,-0.0969,-0.0954,-0.0991,-0.0998,-0.0992,-0.1037,-0.1051,-0.1068,-0.1075,-0.1159,-0.1174,-0.1231,-0.1287,-0.13,-0.1292,-0.1325,-0.1418,-0.1417,-0.1417,-0.133,-0.1323,-0.1317,0,0,0,0,0,-0.0973,-0.0941,-0.0952,-0.095,-0.0972,-0.099,-0.1,-0.1047,-0.1067,-0.1071,-0.1132,-0.1172,-0.1292,-0.129,-0.1306,-0.13,-0.1418,-0.1417,-0.1417,-0.1333,-0.1325,-0.1318,0,0,0,0,0,0,-0.0933,-0.0947,-0.096,-0.093,-0.0954,-0.1003,-0.1006,-0.1035,-0.1086,-0.1094,-0.1171,-0.1191,-0.123,-0.1275,-0.1272,-0.1327,-0.1359,-0.1362,-0.1291,-0.1283,-0.1277,-0.1242,-0.1329,0,0,0,0,0,-0.0916,-0.0902,-0.0927,-0.0903,-0.0909,-0.0956,-0.097,-0.0998,-0.1043,-0.1066,-0.1124,-0.1185,-0.1238,-0.1268,-0.132,-0.135,-0.1345,-0.1355,-0.1349,-0.1343,-0.1325,-0.1322,-0.1313,-0.1414,-0.1414,-0.1414,0,0,-0.0886,-0.0897,-0.0885,-0.0895,-0.0918,-0.0925,-0.0967,-0.0976,-0.0989,-0.1074,-0.1109,-0.1164,-0.1241,-0.1278,-0.1299,-0.1316,-0.1303,-0.1342,-0.1336,-0.1321,-0.132,-0.131,-0.1301,-0.1413,-0.1413,-0.1413,0,0,-0.0834,-0.0834,-0.0813,-0.0834,-0.086,-0.0892,-0.0887,-0.093,-0.0956,-0.0992,-0.1057,-0.1099,-0.1181,-0.1231,-0.1268,-0.1254,-0.1268,-0.1273,-0.1215,-0.1213,-0.1204,-0.1196,-0.1134,-0.1121,-0.1271,-0.1271,-0.1271,0,-0.0792,-0.078,-0.081,-0.0808,-0.0817,-0.087,-0.0857,-0.0893,-0.0949,-0.0956,-0.099,-0.1084,-0.1156,-0.1193,-0.12,-0.1238,-0.1217,-0.1238,-0.1201,-0.1194,-0.1187,-0.1126,-0.1114,-0.1267,-0.1267,-0.1268,-0.1268,0,-0.0743,-0.0736,-0.0724,-0.0742,-0.0757,-0.0752,-0.0799,-0.0814,-0.0849,-0.0883,-0.0914,-0.1002,-0.1055,-0.1087,-0.1148,-0.1141,-0.1131,-0.1189,-0.1213,-0.1171,-0.111,-0.1098,-0.126,-0.1262,-0.1263,-0.1264,0,0,-0.0617,-0.0675,-0.0668,-0.0675,-0.0721,-0.072,-0.0737,-0.0756,-0.0748,-0.0807,-0.0793,-0.0897,-0.0928,-0.0972,-0.1043,-0.1051,-0.0993,-0.1096,-0.1098,-0.1017,-0.093,-0.0842,-0.0821,-0.1043,-0.1042,-0.1041,-0.0889,0,-0.0561,-0.0553,-0.0598,-0.0584,-0.058,-0.0635,-0.0642,-0.0669,-0.0702,-0.0704,-0.0774,-0.0795,-0.0891,-0.0905,-0.0932,-0.0988,-0.0965,-0.1025,-0.0997,-0.0995,-0.091,-0.0807,-0.0785,-0.0641,-0.0878,-0.0876,-0.0874,0,-0.0487,-0.05,-0.0478,-0.051,-0.0508,-0.0506,-0.0509,-0.0523,-0.0552,-0.0571,-0.0601,-0.0657,-0.0688,-0.0772,-0.0804,-0.0835,-0.0864,-0.0897,-0.0893,-0.0835,-0.0886,-0.0733,-0.0612,-0.0823,-0.0857,-0.0858,-0.0859,0,-0.0383,-0.0406,-0.0388,-0.0398,-0.0441,-0.0425,-0.044,-0.0465,-0.0439,-0.0468,-0.0425,-0.051,-0.0491,-0.0578,-0.065,-0.0726,-0.0644,-0.0766,-0.0694,-0.0686,-0.0672,-0.0665,-0.074,-0.0749,-0.075,-0.075,-0.0751,0,-0.0298,-0.0274,-0.0335,-0.0319,-0.0268,-0.0336,-0.0271,-0.0298,-0.0291,-0.0205,-0.0335,-0.0249,-0.0439,-0.0428,-0.0555,-0.054,-0.0562,-0.0631,-0.0634,-0.0635,-0.0627,-0.0817,-0.0953,-0.0745,-0.0746,-0.0747,-0.0748,0,-0.0162,-0.0214,-0.0182,-0.0217,-0.0213,-0.0166,-0.0135,-0.0085,-0.0103,0.0015,0.0029,-0.0006,0.002,-0.0126,-0.0213,-0.0347,-0.048,-0.0389,-0.0338,-0.0338,-0.0518,-0.0647,-0.0657,-0.0737,-0.0305,-0.0302,-0.03,0,-0.0086,-0.0065,-0.0071,-0.0035,-0.0035,0.0012,0.0062,0.0032,0.0103,0.0204,0.0297,0.0348,0.0444,0.0362,0.013,-0.001,-0.0265,-0.0116,-0.0283,-0.0468,-0.0617,-0.0725,-0.0804,-0.0214,-0.0211,-0.0208,-0.0206,0,0.006,0.0053,0.0071,0.0138,0.0195,0.0265,0.0332,0.0419,0.0437,0.0557,0.0745,0.0836,0.079,0.0684,0.0468,0.0299,-0.0266,-0.0064,-0.0298,-0.0555,-0.0637,-0.0734,-0.0345,-0.0183,-0.0185,-0.0187,-0.0188,-0.0189,0.018,0.0223,0.0232,0.0304,0.0383,0.0499,0.0572,0.0688,0.0849,0.105,0.1118,0.1332,0.1104,0.083,0.0557,0.0029,-0.0019,-0.0192,-0.0324,-0.0407,-0.0521,-0.0028,0.0141,0.014,0.014,0.014,0.0139,0,0.0279,0.0302,0.0389,0.0459,0.0568,0.0578,0.0731,0.0825,0.1048,0.1349,0.1544,0.1646,0.1311,0.0873,0.0202,-0.0192,-0.042,-0.0445,-0.0669,-0.0734,-0.0323,-0.0363,-0.0245,-0.0245,-0.0245,-0.0245,-0.0245,-0.0244,0.0321,0.0386,0.0408,0.0577,0.0654,0.0783,0.0867,0.1067,0.1286,0.1688,0.1923,0.2071,0.1762,0.049,-0.0397,-0.0613,-0.0973,-0.0973,-0.1152,-0.0979,-0.097,-0.0962,-0.1034,-0.1059,-0.106,-0.154,-0.1545,-0.1548]}],[{"header":{"parameterUnit":"m.s-1","parameterCategory":2,"la1":30.2991,"la2":30.254,"lo1":-89.0895,"lo2":-89.0444,"dy":0.0017,"dx":0.0017,"nx":28,"ny":28,"refTime":"2025-05-31T03:00:00:Z","depth":"2","parameterNumber":2,"parameterNumberName":"U-component_of_CURRENTS"},"data":[0,0,0,0,0,0,0,0,0,0,0,0,0,0,0,0,0,0,0,0,0,0,0,0,0,0,0,0,0,0,0,0,0,0,0,0,0,0,0,0,0,0,0,0,0,0,0,0,0,0,0,0,0,0,0,0,0,0,0.2067,0.2068,0,0.2096,0.2096,0.2096,0.2187,0.2189,0.2191,0.2193,0.2309,0.231,0.2311,0,0,0,0,0,0,0,0,0,0,0,0,0,0.1996,0.1997,0.2067,0.2068,0.2068,0.2096,0.2096,0.2097,0.2187,0.2189,0.2192,0.2194,0.2308,0.231,0.2311,0,0,0,0,0,0,0,0,0,0,0,0,0,0.2024,0.1998,0.2067,0.2118,0.2123,0.2096,0.2096,0.2097,0.2186,0.2189,0.2193,0.2196,0.2308,0.231,0.2311,0.2255,0,0,0.2316,0.2316,0,0,0,0,0,0,0,0,0.2023,0.2027,0.211,0.2115,0.212,0.2143,0.2114,0.2155,0.2185,0.216,0.2194,0.2197,0.226,0.2266,0.226,0.226,0.2265,0.2316,0.2317,0.2318,0.2318,0,0,0,0,0,0,0,0.2021,0.2025,0.2077,0.211,0.2117,0.2107,0.2116,0.2121,0.2191,0.2162,0.217,0.2175,0.2264,0.2258,0.2264,0.2267,0.2316,0.2317,0.2318,0.2319,0.2408,0.2409,0,0,0,0,0,0,0.2023,0.2024,0.2076,0.2078,0.2081,0.2107,0.2116,0.2131,0.219,0.2202,0.2172,0.2179,0.2254,0.2262,0.2268,0.2378,0.2318,0.2319,0.232,0.2406,0.2408,0.241,0,0,0,0,0,0,0.2021,0.2027,0.2075,0.2052,0.2058,0.2105,0.2121,0.213,0.2156,0.2196,0.2211,0.2194,0.2257,0.2266,0.234,0.2377,0.232,0.2321,0.2405,0.2407,0.2409,0.2486,0,0,0,0,0,0,0.2019,0.2027,0.2045,0.2053,0.206,0.2097,0.2118,0.2128,0.2153,0.2163,0.2218,0.2231,0.226,0.2338,0.2342,0.2378,0.2322,0.2403,0.2406,0.2408,0.2482,0.249,0.2498,0,0,0,0,0,0.2016,0.2024,0.2045,0.2052,0.2082,0.2098,0.2102,0.2143,0.2151,0.2175,0.2232,0.2231,0.2358,0.2341,0.2345,0.2382,0.2402,0.2405,0.2408,0.2478,0.2489,0.2498,0,0,0,0,0,0,0.202,0.2034,0.2058,0.2078,0.2106,0.2116,0.2129,0.2144,0.2196,0.2216,0.225,0.2268,0.2348,0.2344,0.2324,0.2414,0.2377,0.2381,0.2428,0.2439,0.2447,0.2454,0.2324,0,0,0,0,0,0.2022,0.2035,0.2055,0.2082,0.2085,0.2104,0.2115,0.2146,0.2185,0.221,0.2257,0.2303,0.235,0.2383,0.2421,0.2458,0.2486,0.2483,0.2491,0.2498,0.2507,0.2573,0.2588,0.242,0.242,0.242,0,0,0.203,0.2046,0.2053,0.2084,0.2097,0.2129,0.212,0.2148,0.2202,0.2212,0.2305,0.2335,0.2368,0.244,0.2471,0.2451,0.2569,0.2502,0.2509,0.2513,0.2578,0.2594,0.2609,0.2422,0.2422,0.2422,0,0,0.2046,0.2064,0.2074,0.2101,0.2134,0.2152,0.2164,0.2195,0.2236,0.2312,0.2343,0.2403,0.2464,0.251,0.2532,0.2596,0.2612,0.2598,0.2647,0.2711,0.2726,0.2739,0.2834,0.2854,0.26,0.26,0.26,0,0.2062,0.209,0.2084,0.2114,0.2155,0.2167,0.2213,0.2241,0.2312,0.2354,0.2366,0.2474,0.2501,0.2583,0.262,0.2617,0.2664,0.261,0.2724,0.2737,0.2749,0.2842,0.2864,0.2604,0.2604,0.2603,0.2603,0,0.2088,0.2125,0.2132,0.2186,0.2227,0.2265,0.2312,0.2365,0.2409,0.2447,0.2544,0.2583,0.2648,0.266,0.2666,0.2757,0.2769,0.2731,0.2701,0.2771,0.2865,0.2887,0.261,0.2609,0.2607,0.2606,0,0,0.2079,0.214,0.2145,0.2204,0.2276,0.2316,0.2399,0.2478,0.2533,0.2602,0.2685,0.2756,0.2758,0.2782,0.2786,0.2837,0.2974,0.2825,0.2826,0.2925,0.3154,0.3052,0.3066,0.2958,0.2961,0.2964,0.32,0,0.211,0.2189,0.2211,0.2319,0.2373,0.2429,0.25,0.2582,0.2643,0.2723,0.2761,0.283,0.2807,0.2836,0.289,0.2947,0.3028,0.2916,0.3066,0.3071,0.2975,0.3085,0.2812,0.2988,0.322,0.3224,0.3227,0,0.2128,0.219,0.2293,0.2409,0.2432,0.2495,0.2628,0.269,0.2781,0.2827,0.2894,0.2916,0.301,0.2962,0.3123,0.3056,0.3122,0.3162,0.3171,0.3058,0.3007,0.2947,0.3018,0.3262,0.3259,0.3257,0.3254,0,0.2153,0.2248,0.2347,0.2392,0.2512,0.2572,0.2628,0.2725,0.2786,0.2883,0.2942,0.3032,0.3097,0.3179,0.3253,0.321,0.3426,0.3374,0.3359,0.3355,0.314,0.3109,0.3508,0.3507,0.3507,0.3506,0.3505,0,0.2194,0.2277,0.2361,0.2425,0.2518,0.2597,0.269,0.2748,0.2844,0.2929,0.2979,0.3067,0.3154,0.3269,0.332,0.3412,0.3491,0.3403,0.341,0.3161,0.3131,0.3359,0.3338,0.3515,0.3513,0.3511,0.351,0,0.2225,0.2289,0.2392,0.2503,0.2534,0.2598,0.2701,0.2758,0.2851,0.2969,0.3008,0.3145,0.3284,0.3366,0.3523,0.3502,0.3588,0.3602,0.3316,0.3282,0.3471,0.3452,0.3634,0.3632,0.3631,0.363,0.3629,0,0.2255,0.2307,0.2413,0.2448,0.2497,0.2587,0.2633,0.2742,0.2807,0.3017,0.3073,0.3247,0.3328,0.3502,0.3496,0.3575,0.3633,0.3368,0.3211,0.3497,0.3486,0.3469,0.3452,0.2997,0.2991,0.2986,0.2982,0,0.227,0.2296,0.2355,0.2415,0.2475,0.2548,0.2629,0.2683,0.2833,0.2925,0.3053,0.3138,0.3308,0.3236,0.3328,0.3328,0.3315,0.3268,0.3671,0.2974,0.2905,0.2891,0.2894,0.2937,0.2942,0.2945,0.2947,0.2949,0.2229,0.2247,0.228,0.2345,0.2413,0.2467,0.2468,0.2553,0.2622,0.2703,0.2896,0.2921,0.3007,0.297,0.2936,0.2913,0.3128,0.2995,0.3007,0.3026,0.2877,0.2805,0.2795,0.2799,0.2802,0.2804,0.2807,0,0.2122,0.2156,0.2201,0.2247,0.2267,0.2363,0.2425,0.2367,0.2359,0.2504,0.2538,0.2387,0.2403,0.2518,0.2418,0.2442,0.2385,0.2355,0.2256,0.2304,0.2345,0.2156,0.1887,0.1884,0.1881,0.1878,0,0,0.2053,0.2038,0.207,0.2064,0.2123,0.209,0.2095,0.201,0.2032,0.1982,0.2006,0.2193,0.2402,0.2072,0.2068,0.1966,0.21,0.1888,0.263,0.2558,0.2594,0.2729,0.2494,0,0,0,0,0]},{"header":{"parameterUnit":"m.s-1","parameterCategory":2,"la1":30.2991,"la2":30.254,"lo1":-89.0895,"lo2":-89.0444,"dy":0.0017,"dx":0.0017,"nx":28,"ny":28,"refTime":"2025-05-31T03:00:00:Z","depth":"2","parameterNumber":3,"parameterNumberName":"V-component_of_CURRENTS"},"data":[0,0,0,0,0,0,0,0,0,0,0,0,0,0,0,0,0,0,0,0,0,0,0,0,0,0,0,0,0,0,0,0,0,0,0,0,0,0,0,0,0,0,0,0,0,0,0,0,0,0,0,0,0,0,0,0,0,0,0.0245,0.0244,0,0.0172,0.0171,0.017,0.0024,0.0022,0.0019,0.0016,-0.0208,-0.0212,-0.0215,0,0,0,0,0,0,0,0,0,0,0,0,0,0.0248,0.0249,0.0245,0.0244,0.0243,0.0172,0.0171,0.017,0.0025,0.0021,0.0018,0.0015,-0.0207,-0.0211,-0.0215,0,0,0,0,0,0,0,0,0,0,0,0,0,0.0217,0.0249,0.0245,0.0163,0.0155,0.0172,0.0171,0.017,0.0025,0.0021,0.0017,0.0013,-0.0206,-0.0211,-0.0216,-0.0165,0,0,-0.0231,-0.0234,0,0,0,0,0,0,0,0,0.0219,0.0217,0.0176,0.0169,0.016,0.0104,0.009,0.0051,0.0027,0.0073,0.0016,0.0011,-0.0114,-0.0127,-0.0131,-0.0175,-0.0185,-0.0232,-0.0235,-0.0237,-0.0239,0,0,0,0,0,0,0,0.0221,0.0219,0.0214,0.0176,0.0166,0.0127,0.0118,0.0082,-0.0,0.0069,0.0058,0.0054,-0.012,-0.0126,-0.0138,-0.0188,-0.0232,-0.0236,-0.0239,-0.0241,-0.034,-0.034,0,0,0,0,0,0,0.0239,0.0222,0.0217,0.0212,0.0182,0.0131,0.012,0.0125,0.0003,-0.0018,0.0058,0.0048,-0.0115,-0.0132,-0.0147,-0.0227,-0.0237,-0.0242,-0.0245,-0.034,-0.034,-0.0339,0,0,0,0,0,0,0.0239,0.024,0.022,0.0215,0.021,0.0135,0.0142,0.0126,0.0092,-0.0003,-0.0029,0.0036,-0.0119,-0.0139,-0.0229,-0.0233,-0.0244,-0.0249,-0.0341,-0.034,-0.034,-0.0304,0,0,0,0,0,0,0.024,0.0241,0.0243,0.0217,0.0211,0.0206,0.0145,0.0128,0.0098,0.0083,-0.0029,-0.0053,-0.0124,-0.0221,-0.0234,-0.024,-0.0253,-0.0342,-0.0341,-0.034,-0.0305,-0.0302,-0.0299,0,0,0,0,0,0.0241,0.026,0.0244,0.0242,0.0219,0.0206,0.0199,0.0131,0.0101,0.0085,-0.0008,-0.0051,-0.0225,-0.0226,-0.0241,-0.0248,-0.0342,-0.0341,-0.034,-0.0307,-0.0302,-0.0299,0,0,0,0,0,0,0.0248,0.0247,0.0227,0.0241,0.0216,0.0181,0.0171,0.0139,0.0065,0.0038,-0.0054,-0.0084,-0.0161,-0.0197,-0.0195,-0.027,-0.0284,-0.0286,-0.0254,-0.025,-0.0247,-0.0221,-0.0257,0,0,0,0,0,0.0262,0.0276,0.0259,0.0262,0.0261,0.0222,0.0208,0.0166,0.0107,0.007,-0.0012,-0.0091,-0.0154,-0.0202,-0.0263,-0.03,-0.0308,-0.0309,-0.0306,-0.0303,-0.029,-0.0307,-0.0304,-0.0336,-0.0336,-0.0336,0,0,0.0262,0.0265,0.0268,0.0266,0.0247,0.0243,0.0201,0.0182,0.0156,0.006,-0.0016,-0.0084,-0.016,-0.0224,-0.0258,-0.0267,-0.0296,-0.0302,-0.0299,-0.0288,-0.0306,-0.0303,-0.03,-0.0335,-0.0336,-0.0336,0,0,0.0279,0.0281,0.0298,0.0287,0.0268,0.0252,0.0249,0.0207,0.0161,0.0098,0.0021,-0.005,-0.0148,-0.0207,-0.0245,-0.0245,-0.0276,-0.0262,-0.0234,-0.025,-0.0248,-0.0246,-0.0242,-0.024,-0.0263,-0.0263,-0.0263,0,0.0275,0.0297,0.0295,0.0303,0.0288,0.0261,0.0255,0.0231,0.0149,0.0119,0.0067,-0.006,-0.0134,-0.019,-0.021,-0.0237,-0.0248,-0.0248,-0.0246,-0.0244,-0.0243,-0.024,-0.0238,-0.0261,-0.0262,-0.0262,-0.0262,0,0.03,0.031,0.0321,0.0325,0.0306,0.0304,0.0271,0.0243,0.0192,0.0153,0.0075,-0.0021,-0.0097,-0.0126,-0.0182,-0.0202,-0.0212,-0.0238,-0.0255,-0.0237,-0.0235,-0.0234,-0.0259,-0.0259,-0.026,-0.026,0,0,0.0311,0.0336,0.0338,0.0335,0.0315,0.0306,0.0282,0.0253,0.0254,0.0159,0.0139,0.0018,-0.0024,-0.0066,-0.013,-0.0154,-0.0163,-0.0195,-0.0197,-0.0189,-0.0187,-0.0217,-0.0219,-0.0197,-0.0197,-0.0197,-0.0187,0,0.0326,0.0352,0.0353,0.0352,0.0353,0.0325,0.0319,0.0281,0.0241,0.0221,0.0137,0.0086,0.0,-0.0037,-0.0075,-0.0132,-0.0159,-0.0162,-0.0208,-0.0208,-0.0236,-0.0219,-0.0216,-0.021,-0.0186,-0.0185,-0.0185,0,0.034,0.0357,0.0362,0.0372,0.0374,0.0367,0.0351,0.0341,0.032,0.0286,0.0226,0.0172,0.0112,0.0043,-0.0043,-0.0044,-0.0115,-0.016,-0.0161,-0.0199,-0.0236,-0.0227,-0.0209,-0.0183,-0.0184,-0.0184,-0.0184,0,0.0326,0.0359,0.0362,0.0358,0.037,0.036,0.0364,0.0348,0.0364,0.0328,0.0338,0.0254,0.0227,0.0128,0.002,-0.0017,-0.0047,-0.0108,-0.0199,-0.02,-0.021,-0.0214,-0.0168,-0.0168,-0.0168,-0.0168,-0.0168,0,0.0326,0.0326,0.0363,0.0357,0.0392,0.037,0.0403,0.04,0.0421,0.048,0.0372,0.0415,0.0244,0.0203,0.0078,-0.0036,-0.0006,-0.0181,-0.0201,-0.0197,-0.0199,-0.0191,-0.0194,-0.0168,-0.0168,-0.0168,-0.0168,0,0.0281,0.0308,0.0325,0.0359,0.0379,0.0389,0.0451,0.0492,0.0495,0.0572,0.0564,0.0539,0.048,0.0325,0.0199,0.0053,-0.006,-0.0113,-0.0087,-0.0107,-0.0219,-0.022,-0.0223,-0.0224,-0.0225,-0.0225,-0.0226,0,0.0251,0.0258,0.033,0.0368,0.038,0.0419,0.0473,0.0511,0.0573,0.0679,0.0735,0.07,0.0711,0.0509,0.0242,0.0017,-0.0018,-0.0142,-0.0235,-0.0205,-0.0225,-0.0224,-0.0224,-0.0223,-0.0224,-0.0224,-0.0225,0,0.0205,0.0239,0.0274,0.0372,0.043,0.0515,0.0594,0.0682,0.0769,0.0872,0.1029,0.1055,0.0826,0.0602,0.0247,0.0085,-0.0116,-0.0162,-0.0115,-0.022,-0.0208,-0.0227,-0.0226,-0.0228,-0.0228,-0.0228,-0.0228,-0.0227,0.0188,0.0225,0.031,0.0405,0.0482,0.0623,0.0752,0.087,0.1052,0.1235,0.1235,0.1266,0.0951,0.0494,0.021,-0.0127,-0.0136,-0.027,-0.0267,-0.0264,-0.0276,-0.0268,-0.03,-0.03,-0.03,-0.03,-0.03,0,0.0214,0.0273,0.0349,0.0498,0.0623,0.0648,0.0859,0.1025,0.1302,0.1364,0.1476,0.1202,0.0912,0.0566,0.0049,-0.0256,-0.0283,-0.0335,-0.0309,-0.0304,-0.0299,-0.0313,-0.0346,-0.0347,-0.0347,-0.0348,0,0,0.0232,0.034,0.0407,0.0627,0.0724,0.0949,0.111,0.1336,0.1451,0.1566,0.1539,0.1419,0.0995,0.062,0.0211,-0.0064,-0.011,-0.0117,-0.0056,0.0026,0.0034,-0.0247,-0.026,0,0,0,0,0]}],[{"header":{"parameterUnit":"m.s-1","parameterCategory":2,"la1":30.2991,"la2":30.254,"lo1":-89.0895,"lo2":-89.0444,"dy":0.0017,"dx":0.0017,"nx":28,"ny":28,"refTime":"2025-05-31T03:00:00:Z","depth":"4","parameterNumber":2,"parameterNumberName":"U-component_of_CURRENTS"},"data":[0,0,0,0,0,0,0,0,0,0,0,0,0,0,0,0,0,0,0,0,0,0,0,0,0,0,0,0,0,0,0,0,0,0,0,0,0,0,0,0,0,0,0,0,0,0,0,0,0,0,0,0,0,0,0,0,0,0,0.0888,0.0889,0,0.092,0.0921,0.0922,0.0964,0.0964,0.0964,0.0965,0.1016,0.1017,0.1018,0,0,0,0,0,0,0,0,0,0,0,0,0,0.0842,0.0844,0.0888,0.0889,0.0889,0.092,0.0921,0.0922,0.0964,0.0964,0.0965,0.0965,0.1016,0.1017,0.1018,0,0,0,0,0,0,0,0,0,0,0,0,0,0.0871,0.0844,0.0888,0.0911,0.0913,0.092,0.0921,0.0922,0.0964,0.0964,0.0965,0.0965,0.1015,0.1017,0.1018,0.1017,0,0,0.1023,0.1024,0,0,0,0,0,0,0,0,0.0869,0.0873,0.0907,0.0909,0.0912,0.0936,0.0924,0.0953,0.0963,0.0948,0.0965,0.0965,0.0988,0.0992,0.1002,0.1019,0.1021,0.1023,0.1024,0.1025,0.1025,0,0,0,0,0,0,0,0.0867,0.0871,0.0905,0.0907,0.091,0.0912,0.0917,0.093,0.0968,0.0949,0.0952,0.095,0.099,0.1,0.1003,0.1022,0.1023,0.1025,0.1026,0.1026,0.1099,0.11,0,0,0,0,0,0,0.0857,0.087,0.0904,0.0905,0.0887,0.0912,0.0918,0.093,0.0967,0.0972,0.0949,0.0951,0.0997,0.1001,0.1005,0.1073,0.1025,0.1026,0.1027,0.1098,0.1099,0.11,0,0,0,0,0,0,0.0856,0.086,0.0902,0.0884,0.089,0.0912,0.0925,0.093,0.0973,0.0966,0.0972,0.0989,0.0998,0.1003,0.1043,0.1073,0.1027,0.1028,0.1097,0.1098,0.11,0.1165,0,0,0,0,0,0,0.0855,0.086,0.0881,0.0884,0.089,0.0924,0.0925,0.093,0.0967,0.0971,0.1002,0.1005,0.0999,0.1041,0.1045,0.1074,0.103,0.1095,0.1097,0.1099,0.1161,0.1168,0.1174,0,0,0,0,0,0.0853,0.0867,0.0883,0.0887,0.0914,0.0925,0.0929,0.0948,0.0969,0.099,0.1014,0.1006,0.1055,0.1044,0.1048,0.1078,0.1094,0.1097,0.1099,0.1159,0.1167,0.1174,0,0,0,0,0,0,0.0856,0.0873,0.0889,0.091,0.0927,0.0931,0.0952,0.0969,0.1006,0.1021,0.1025,0.103,0.107,0.1066,0.1053,0.1102,0.1072,0.1075,0.1116,0.1124,0.113,0.1149,0.1031,0,0,0,0,0,0.0866,0.0886,0.09,0.092,0.0934,0.0955,0.0969,0.0983,0.1004,0.1023,0.104,0.1059,0.1077,0.1097,0.1102,0.1139,0.1158,0.1159,0.1165,0.1171,0.1188,0.1241,0.1255,0.1108,0.1108,0.1108,0,0,0.0872,0.0883,0.0896,0.0923,0.0943,0.0958,0.0967,0.0996,0.1019,0.1021,0.1069,0.1082,0.109,0.1123,0.1142,0.1131,0.1223,0.1174,0.1179,0.1193,0.1245,0.126,0.1273,0.1109,0.1109,0.1109,0,0,0.0874,0.0909,0.0925,0.0943,0.0972,0.0982,0.0999,0.1024,0.1056,0.11,0.1101,0.1142,0.117,0.1181,0.1191,0.1241,0.125,0.1239,0.1299,0.135,0.1363,0.1375,0.1423,0.1439,0.125,0.125,0.125,0,0.0881,0.09,0.093,0.0946,0.0962,0.0997,0.1015,0.1047,0.1082,0.1118,0.1125,0.12,0.1199,0.1256,0.1267,0.1258,0.1289,0.127,0.1361,0.1373,0.1384,0.143,0.1447,0.1253,0.1253,0.1253,0.1252,0,0.0889,0.0911,0.0923,0.0956,0.0982,0.1002,0.1042,0.1077,0.1124,0.1166,0.125,0.127,0.1328,0.1322,0.1312,0.1387,0.1385,0.1358,0.1345,0.1403,0.1448,0.1464,0.1258,0.1257,0.1256,0.1255,0,0,0.0879,0.0919,0.0927,0.0941,0.0991,0.1006,0.1056,0.1114,0.1183,0.1237,0.1331,0.1367,0.1422,0.1437,0.1441,0.1477,0.157,0.1459,0.146,0.1515,0.1698,0.1584,0.159,0.1568,0.1571,0.1573,0.1701,0,0.0877,0.089,0.0926,0.0953,0.0961,0.1015,0.1069,0.1136,0.1219,0.1317,0.1383,0.1478,0.1458,0.1513,0.1551,0.1564,0.1615,0.1539,0.1627,0.163,0.1528,0.1605,0.1582,0.1712,0.1716,0.1718,0.172,0,0.0865,0.0876,0.0894,0.095,0.097,0.1013,0.1117,0.1176,0.1319,0.1399,0.1519,0.1587,0.168,0.1647,0.1747,0.1706,0.172,0.1719,0.1724,0.1607,0.1545,0.164,0.1749,0.1747,0.1744,0.1743,0.1741,0,0.0807,0.0852,0.0864,0.088,0.0954,0.1005,0.1076,0.1213,0.1295,0.1481,0.1573,0.1705,0.179,0.1835,0.1854,0.1823,0.1941,0.1895,0.1811,0.1803,0.1838,0.1824,0.1971,0.1971,0.1971,0.1971,0.197,0,0.0759,0.0765,0.085,0.0854,0.0923,0.1001,0.1122,0.1216,0.1382,0.1497,0.164,0.1739,0.1842,0.1917,0.1915,0.192,0.2007,0.1846,0.1835,0.1861,0.1849,0.185,0.1834,0.1975,0.1974,0.1973,0.1973,0,0.0664,0.0707,0.0733,0.0841,0.0889,0.095,0.1132,0.1215,0.1394,0.1545,0.1611,0.1795,0.1904,0.1976,0.2052,0.1992,0.2002,0.1976,0.2024,0.201,0.1819,0.1805,0.1916,0.1913,0.1911,0.1909,0.1907,0,0.0607,0.0608,0.0726,0.0762,0.0819,0.0933,0.1013,0.1203,0.1302,0.1551,0.1607,0.1788,0.189,0.193,0.1997,0.2034,0.1989,0.1991,0.1883,0.1839,0.1818,0.1808,0.1797,0.1904,0.1903,0.1902,0.1902,0,0.051,0.0567,0.0599,0.0675,0.076,0.0852,0.0996,0.106,0.1276,0.1442,0.1587,0.1675,0.1798,0.187,0.192,0.1921,0.1989,0.1966,0.1969,0.1868,0.1824,0.1804,0.1797,0.1894,0.1895,0.1895,0.1896,0,0.0455,0.0464,0.0519,0.0585,0.0676,0.075,0.0842,0.0974,0.1098,0.1386,0.1421,0.1614,0.1775,0.1813,0.1846,0.1863,0.1826,0.1745,0.176,0.177,0.1659,0.1578,0.1588,0,0,0,0,0,0.0397,0.039,0.0427,0.0495,0.0579,0.0641,0.0811,0.0909,0.1127,0.1191,0.1316,0.1429,0.1542,0.1636,0.1624,0.1759,0.1807,0.1734,0.1713,0.1848,0.1857,0.1738,0,0,0,0,0,0,0.0344,0.0359,0.0381,0.0401,0.0438,0.0525,0.0633,0.0774,0.0842,0.1069,0.1143,0.1318,0.1446,0.1525,0.1585,0.1613,0.1566,0.1858,0.1854,0.1842,0.1851,0.1859,0.1739,0,0,0,0,0]},{"header":{"parameterUnit":"m.s-1","parameterCategory":2,"la1":30.2991,"la2":30.254,"lo1":-89.0895,"lo2":-89.0444,"dy":0.0017,"dx":0.0017,"nx":28,"ny":28,"refTime":"2025-05-31T03:00:00:Z","depth":"4","parameterNumber":3,"parameterNumberName":"V-component_of_CURRENTS"},"data":[0,0,0,0,0,0,0,0,0,0,0,0,0,0,0,0,0,0,0,0,0,0,0,0,0,0,0,0,0,0,0,0,0,0,0,0,0,0,0,0,0,0,0,0,0,0,0,0,0,0,0,0,0,0,0,0,0,0,0.0401,0.0401,0,0.0383,0.0382,0.0382,0.0373,0.0373,0.0373,0.0373,0.0335,0.0334,0.0332,0,0,0,0,0,0,0,0,0,0,0,0,0,0.0404,0.0404,0.0401,0.0401,0.0401,0.0383,0.0382,0.0382,0.0373,0.0373,0.0373,0.0373,0.0335,0.0334,0.0332,0,0,0,0,0,0,0,0,0,0,0,0,0,0.0395,0.0404,0.0401,0.0396,0.0395,0.0383,0.0382,0.0382,0.0373,0.0373,0.0373,0.0373,0.0336,0.0334,0.0332,0.0317,0,0,0.0327,0.0326,0,0,0,0,0,0,0,0,0.0395,0.0394,0.0397,0.0396,0.0395,0.0382,0.0369,0.036,0.0373,0.038,0.0373,0.0373,0.0349,0.0346,0.0341,0.0316,0.0314,0.0327,0.0326,0.0325,0.0324,0,0,0,0,0,0,0,0.0396,0.0395,0.0393,0.0396,0.0396,0.0385,0.0384,0.0367,0.0362,0.0379,0.0379,0.0379,0.0349,0.0342,0.034,0.0313,0.0327,0.0325,0.0324,0.0323,0.0282,0.0282,0,0,0,0,0,0,0.0402,0.0396,0.0393,0.0392,0.0397,0.0385,0.0384,0.0385,0.0363,0.036,0.0379,0.0379,0.0345,0.0342,0.0338,0.0349,0.0325,0.0323,0.0322,0.0282,0.0282,0.0282,0,0,0,0,0,0,0.0402,0.0402,0.0394,0.0395,0.0393,0.0385,0.0386,0.0384,0.0386,0.0363,0.036,0.0384,0.0345,0.0341,0.0337,0.0346,0.0323,0.0321,0.0282,0.0282,0.0282,0.035,0,0,0,0,0,0,0.0403,0.0402,0.0408,0.0395,0.0393,0.0395,0.0386,0.0384,0.0386,0.0386,0.0366,0.0362,0.0345,0.034,0.0335,0.0343,0.032,0.0282,0.0282,0.0282,0.0348,0.0353,0.0356,0,0,0,0,0,0.0403,0.0408,0.0408,0.0408,0.04,0.0396,0.0394,0.0388,0.0387,0.039,0.0381,0.0363,0.0335,0.0339,0.0333,0.0341,0.0282,0.0282,0.0282,0.0346,0.0352,0.0356,0,0,0,0,0,0,0.0411,0.0407,0.0407,0.0411,0.0409,0.0395,0.0399,0.0394,0.0389,0.039,0.0369,0.0364,0.0361,0.0339,0.0343,0.0325,0.0303,0.0302,0.0353,0.0358,0.0362,0.0369,0.0318,0,0,0,0,0,0.0416,0.0422,0.0415,0.0421,0.042,0.0412,0.041,0.0407,0.0399,0.0397,0.0384,0.0367,0.0354,0.0349,0.033,0.0325,0.0281,0.0322,0.0327,0.033,0.0331,0.0274,0.0273,0.0281,0.0281,0.0281,0,0,0.042,0.0421,0.0424,0.0424,0.0421,0.043,0.0411,0.0414,0.0426,0.0393,0.0404,0.0382,0.0355,0.0352,0.0347,0.0337,0.0303,0.033,0.0334,0.0332,0.0273,0.0272,0.0272,0.0281,0.0281,0.0281,0,0,0.0434,0.0434,0.0444,0.0448,0.045,0.0446,0.0451,0.0442,0.0443,0.0448,0.0426,0.0411,0.0396,0.0376,0.0365,0.0377,0.0327,0.037,0.04,0.0345,0.0344,0.0343,0.0282,0.0275,0.0373,0.0373,0.0373,0,0.0439,0.0458,0.0447,0.0462,0.0475,0.0458,0.0479,0.0474,0.0467,0.0468,0.0461,0.0427,0.0406,0.0396,0.0403,0.0388,0.0345,0.039,0.0352,0.0349,0.0346,0.0285,0.0276,0.0376,0.0376,0.0376,0.0375,0,0.0461,0.0483,0.0491,0.051,0.0518,0.0533,0.053,0.0533,0.0532,0.0524,0.0514,0.0479,0.0459,0.0447,0.0435,0.0408,0.038,0.0365,0.0343,0.035,0.0284,0.0273,0.0381,0.038,0.0379,0.0378,0,0,0.0451,0.0499,0.0503,0.0536,0.055,0.0562,0.0579,0.0588,0.06,0.0578,0.0583,0.0554,0.0527,0.0511,0.048,0.0434,0.0381,0.04,0.0395,0.0347,0.0252,0.0219,0.0204,0.0361,0.0359,0.0358,0.0213,0,0.0475,0.0529,0.0542,0.0599,0.0628,0.0631,0.0651,0.0654,0.0648,0.0642,0.0595,0.0586,0.0554,0.0546,0.0496,0.041,0.0356,0.0421,0.0246,0.024,0.0217,0.0192,0.0354,0.0205,0.0202,0.02,0.0199,0,0.0491,0.0531,0.0596,0.0662,0.0674,0.0709,0.0743,0.0755,0.0734,0.0726,0.0696,0.0652,0.0592,0.0561,0.0411,0.0455,0.0362,0.0287,0.028,0.0218,0.0188,0.0195,0.0179,0.0181,0.0182,0.0183,0.0185,0,0.0503,0.057,0.0634,0.0657,0.0717,0.0756,0.0785,0.0787,0.0796,0.0778,0.0766,0.0691,0.0642,0.0526,0.0373,0.0392,0.0189,0.0192,0.007,0.0066,0.0111,0.0114,0.0077,0.0077,0.0078,0.0078,0.0079,0,0.0529,0.0578,0.0657,0.0697,0.0771,0.0798,0.0857,0.0869,0.0867,0.0867,0.0813,0.0771,0.0629,0.0497,0.0371,0.0177,0.0181,0.0062,0.0023,0.0142,0.015,0.0102,0.0107,0.0073,0.0074,0.0075,0.0076,0,0.0539,0.0586,0.0666,0.0755,0.0788,0.0843,0.0914,0.0941,0.0935,0.0928,0.092,0.0812,0.0639,0.0474,0.026,0.0165,-0.0007,-0.0078,0.0046,0.0018,-0.0091,-0.0081,-0.0219,-0.0222,-0.0224,-0.0225,-0.0227,0,0.0553,0.0597,0.0711,0.0761,0.0817,0.0896,0.0945,0.0979,0.0999,0.0939,0.0928,0.0769,0.0674,0.0343,0.018,-0.0076,-0.0106,-0.0184,-0.012,-0.0099,-0.0123,-0.011,-0.0097,-0.023,-0.0231,-0.0231,-0.0232,0,0.0574,0.0618,0.0683,0.0779,0.0862,0.0942,0.1017,0.1021,0.103,0.103,0.0911,0.0746,0.0538,0.0315,0.0106,-0.0069,-0.012,-0.0206,-0.0202,-0.0142,-0.0114,-0.0133,-0.0118,-0.0239,-0.0238,-0.0237,-0.0237,0,0.0589,0.0628,0.0703,0.0786,0.0891,0.0961,0.0994,0.1006,0.1014,0.0957,0.0908,0.0701,0.0594,0.0313,0.0122,-0.0056,-0.0084,-0.0108,-0.011,-0.0104,-0.0019,0.0038,-0.0086,0,0,0,0,0,0.0596,0.0627,0.0698,0.0787,0.0889,0.0947,0.1029,0.1045,0.1049,0.0973,0.0941,0.0749,0.045,0.032,0.0133,0.0083,-0.0116,-0.014,-0.0144,-0.0278,-0.027,-0.0192,0,0,0,0,0,0,0.0597,0.0657,0.0682,0.0771,0.0832,0.0933,0.099,0.0987,0.0944,0.0922,0.0762,0.0713,0.0419,0.0547,0.0127,0.0074,0.005,-0.0268,-0.0271,-0.0283,-0.0276,-0.0269,-0.0186,0,0,0,0,0]}]]